sat.trackr.live / text

‹ back to catalog

ASIASAT 6

NORAD 40141 · 2014-052A

PAYLOAD ACTIVE UNKNOWN

§ Identity

Operator
Country
AC
Launch date
2014-09-07
Launch site
AFETR
Launch vehicle
Mass (kg)
RCS (m²)
56.43

Purposes: comms

External: N2YO · Heavens-Above · Gunter

§ Orbital elements

Epoch: 2026-09-19T21:15:38.617632Z

Period
1,436.07 min
Inclination
0.0162°
Eccentricity
0.0000975
Mean motion
1.00273628 rev/d
Perigee alt
35,782.0 km
Apogee alt
35,790.2 km
Semi-major
42,164.2 km
B*
0.0000e+0
RAAN
215.4879°
Arg perigee
303.2942°
Mean anomaly
278.8405°
Rev number
4,402

§ Raw data

ASIASAT 61 40141U 14052A   26262.88586363 -.00000366  00000+0  00000+0 0  99912 40141   0.0162 215.4879 0000975 303.2942 278.8405  1.00273628 44024

JSON: /api/v1/satellites/40141 · /tle

For live sub-satellite position, see the globe view (requires WebGL).

§ Visibility from observer

Set your observer location to see the next 7 days of passes ≥ 10°. The values pass through the URL so the page stays shareable.

No JS? Fill the form by hand. The geolocation button needs JavaScript.